Wind_Speed
9 10 11 10 10 11 11 11 10 10 9 9 8 7 7 6 5 5 6 5 5 5 6 6 7 6 6 6 5 5 5 5 6 6 6 6 6 6 6 7 6 7 6
10 10 11 11 11 11 12 12 11 11 10 10 10 8 7 7 6 6 7 7 7 7 7 7 7 7 8 7 7 7 7 7 7 8 8 8 8 8 8 8 8 8 9
11 10 11 11 11 12 13 13 12 11 11 10 10 10 9 8 7 7 8 8 8 8 8 8 8 8 8 8 8 8 8 8 9 9 9 9 10 10 10 11 11 11 11
12 11 11 11 12 13 14 14 13 13 12 12 11 11 10 9 9 7 7 8 8 9 9 9 8 8 9 9 9 10 10 10 10 10 11 11 11 11 11 12 12 13 13
13 12 11 12 13 14 14 14 14 13 13 12 12 11 11 11 10 9 9 9 9 9 9 9 9 9 9 9 10 10 11 11 11 11 12 12 12 13 13 13 14 14 14
15 14 12 13 14 14 14 13 14 13 13 12 12 12 13 13 12 10 10 10 9 9 9 8 9 9 9 9 10 11 11 12 13 13 13 13 14 15 15 15 15 16 16
16 15 14 13 14 14 14 13 13 12 12 12 12 13 14 13 12 11 10 10 10 9 9 10 10 10 10 11 11 11 12 14 14 14 15 16 16 16 17 17 17 17 18
17 16 15 14 14 14 14 13 13 12 12 12 13 13 13 13 12 11 11 10 10 10 10 10 10 10 10 11 12 13 14 14 15 16 17 17 17 18 18 19 19 18 19
17 17 16 16 15 15 13 13 13 12 13 13 13 13 13 12 12 13 12 12 12 12 11 11 11 11 11 12 12 13 14 14 15 16 17 18 18 19 20 20 20 20 21
18 18 17 16 16 15 15 14 13 13 13 13 14 14 14 14 14 14 14 14 13 12 12 12 12 12 12 12 13 13 14 15 16 17 17 18 19 19 20 21 21 21 21
18 19 18 17 16 15 15 15 15 15 14 14 15 16 16 16 16 15 14 14 13 13 13 13 13 13 13 13 14 14 15 16 17 18 18 19 20 20 21 21 21 22 22
19 19 18 16 16 16 16 16 16 16 15 16 17 18 17 17 16 15 14 14 14 13 13 13 14 14 14 15 15 15 16 17 17 18 19 20 20 21 21 22 22 23 23
19 18 18 17 17 17 17 17 17 17 17 17 17 17 17 16 15 15 15 15 14 14 14 14 15 15 16 16 16 16 16 17 17 18 19 19 20 21 22 22 22 23 23
19 19 19 18 18 18 18 18 18 18 17 17 17 17 17 16 16 16 16 15 15 15 14 14 15 15 15 16 17 17 17 17 18 19 20 21 21 21 22 22 22 23 23
19 20 20 19 19 19 18 19 19 18 18 18 17 17 17 16 16 16 15 15 15 15 16 16 16 16 16 16 17 17 18 18 19 20 20 21 21 22 23 22 23 23 23
20 19 20 19 18 18 18 19 19 19 18 18 18 17 17 16 16 16 16 16 16 16 16 17 17 17 17 18 18 18 19 20 21 21 22 22 23 23 23 23 24 24 24
20 19 19 18 18 18 18 18 18 19 18 18 18 17 17 17 16 16 16 16 16 16 17 17 17 17 18 19 19 20 20 21 21 22 22 23 23 24 25 25 25 25 25
20 20 19 18 18 18 17 18 17 16 17 17 17 17 17 16 16 16 16 16 17 17 17 17 18 18 18 19 19 20 21 22 22 23 23 24 25 25 25 25 26 26 26
20 20 20 19 18 17 17 18 17 16 16 16 17 17 16 15 15 16 16 17 17 18 18 18 18 19 19 19 20 21 22 22 23 24 24 25 26 26 26 26 26 27 27
20 20 19 19 19 18 18 18 18 17 17 16 17 16 16 16 16 17 17 18 18 19 18 19 19 19 20 20 21 22 23 23 23 24 25 25 26 26 25 26 27 27 28
19 19 19 19 19 18 18 18 18 17 17 17 17 17 17 17 17 17 18 18 18 19 19 19 20 20 21 22 22 23 23 24 24 25 25 26 26 26 26 27 28 29 29
20 19 19 19 19 19 19 19 19 19 18 18 18 17 17 18 18 18 19 19 19 19 19 19 21 22 23 23 23 24 24 25 25 26 26 26 26 27 28 29 29 30 30
21 20 20 20 20 20 20 20 20 20 19 19 18 18 18 19 19 19 19 19 19 19 20 21 22 22 23 24 24 24 25 25 26 26 26 27 28 29 29 29 29 30 30
22 22 21 21 20 21 21 21 21 20 20 20 20 19 19 19 19 19 19 20 20 20 21 22 22 23 24 25 25 25 26 26 26 26 27 28 28 29 29 30 30 30 30
23 23 23 22 21 22 22 22 22 22 21 21 21 21 20 20 20 20 20 21 21 21 22 23 23 24 25 26 25 25 26 26 26 27 27 28 28 29 29 30 30 30 31
24 23 23 22 22 22 22 23 23 22 22 21 21 20 20 20 20 20 21 21 22 22 23 24 25 25 26 26 26 26 26 26 27 27 28 28 29 29 30 30 30 31 31
Wind_Direction
331 337 340 343 347 350 350 353 355 354 349 347 340 333 326 318 298 286 282 281 278 281 287 286 275 271 276 277 276 279 279 278 276 276 281 286 288 289 295 296 295 291 292
319 327 331 334 336 340 342 343 340 341 340 341 342 339 328 316 302 293 288 285 279 277 284 281 277 272 273 275 278 277 279 275 276 276 278 283 286 289 289 290 293 293 291
308 317 323 326 327 330 332 334 333 332 330 335 337 336 331 319 305 290 289 283 281 281 279 278 274 268 268 269 273 278 281 280 279 281 283 285 287 290 288 288 289 291 290
298 305 314 316 320 323 325 327 328 326 325 326 325 327 327 325 321 305 296 290 281 282 281 276 271 267 266 265 268 272 277 279 279 282 283 283 284 286 288 289 288 288 289
292 296 301 304 312 316 319 322 323 322 320 320 320 320 319 317 318 308 300 299 289 282 285 276 271 270 266 265 267 271 274 277 280 282 281 282 285 287 290 290 288 290 290
288 292 293 298 306 312 315 318 318 318 318 318 317 316 316 315 315 311 305 303 298 284 281 278 273 271 269 269 269 271 274 274 278 280 279 281 285 287 289 289 289 289 288
284 288 290 293 300 306 310 313 314 314 315 315 316 316 314 314 310 309 308 303 300 293 282 279 276 277 277 275 274 273 277 277 277 279 280 283 285 287 288 287 287 287 286
278 283 286 288 291 297 304 309 313 313 313 312 312 315 312 315 314 311 308 301 300 300 295 284 281 281 280 276 275 277 280 281 281 282 282 283 286 286 287 285 284 285 286
271 277 279 282 285 289 297 303 306 310 311 312 312 313 313 312 310 308 306 305 303 301 297 288 284 283 282 279 280 282 283 283 285 285 285 285 286 287 287 288 286 286 286
268 271 276 279 283 288 292 297 300 302 305 307 311 312 313 310 307 307 307 305 302 299 295 290 283 281 280 280 281 284 285 286 288 289 288 288 287 288 290 290 289 288 288
266 268 272 273 278 283 287 291 295 295 297 299 302 306 308 306 303 303 303 300 302 300 292 289 287 287 286 288 289 290 286 287 291 291 289 290 291 291 292 291 292 291 289
265 269 272 271 278 281 284 287 291 292 293 295 298 301 303 303 301 301 302 299 300 302 296 290 287 287 289 291 292 293 288 287 290 293 293 293 294 294 293 293 293 292 290
263 265 267 271 276 279 281 284 287 288 290 292 296 298 301 300 299 299 300 297 294 297 299 295 290 287 288 290 291 289 290 290 292 294 296 295 294 294 294 293 294 294 293
261 261 264 269 273 277 280 282 284 286 288 289 292 295 296 296 296 295 295 293 292 296 298 299 294 291 291 291 292 289 290 293 295 295 297 296 297 298 298 298 298 298 297
260 261 264 267 272 275 278 280 280 282 284 285 288 291 291 292 292 293 293 291 294 296 296 296 294 293 293 292 294 292 293 293 294 295 297 299 300 300 299 298 299 299 298
260 260 262 266 270 273 276 279 278 279 281 281 283 286 289 290 290 291 293 290 292 296 295 296 297 297 296 294 294 295 296 296 296 295 295 295 297 299 299 300 299 299 298
259 259 262 266 269 272 274 278 279 279 279 280 280 283 286 287 286 289 293 294 295 297 297 297 298 298 298 296 296 297 297 296 297 298 297 295 295 296 297 297 298 299 299
255 256 260 264 268 271 274 276 278 277 279 280 281 283 285 287 289 293 294 298 301 301 299 299 299 298 298 298 296 297 298 297 297 299 300 298 296 296 296 299 298 298 300
255 256 259 264 267 269 272 274 277 280 283 285 286 284 284 288 293 296 296 298 300 301 302 301 299 299 299 300 299 299 300 301 299 299 300 299 299 299 298 298 298 298 300
255 256 259 261 264 266 270 273 275 281 287 288 291 290 288 291 293 296 296 297 299 301 299 298 297 298 299 299 298 299 301 301 300 300 299 298 298 299 300 300 300 300 300
255 257 259 261 263 266 270 274 277 284 288 289 291 291 292 291 294 297 297 297 299 300 299 297 298 300 300 300 301 301 301 301 299 299 298 298 300 299 300 301 301 301 301
255 255 257 261 263 266 271 276 281 287 288 289 291 290 289 289 291 296 298 299 300 301 302 300 300 300 301 300 300 300 300 300 300 300 300 300 300 300 301 302 303 302 302
255 256 258 260 264 266 271 276 280 285 286 287 289 290 290 289 291 295 299 300 300 300 299 301 302 303 303 304 303 303 303 303 303 302 302 300 300 300 302 303 303 304 304
254 255 257 261 264 268 272 274 278 282 283 285 287 287 288 290 292 295 298 299 299 300 300 301 303 304 305 305 303 302 301 301 302 302 302 301 301 302 303 303 304 306 306
254 255 258 261 264 268 271 274 277 279 281 282 283 284 287 289 291 294 296 297 299 301 302 303 304 304 305 305 304 304 302 302 302 302 302 302 302 303 303 303 304 304 305
253 255 257 260 264 267 272 275 276 277 278 279 281 285 288 290 292 293 295 297 298 299 301 302 304 305 305 304 304 304 303 303 303 303 303 303 304 304 305 305 306 306 306
Height
5922 5921 5920 5919 5918 5917 5916 5915 5913 5912 5911 5910 5910 5909 5909 5908 5908 5908 5909 5909 5909 5910 5910 5911 5911 5911 5912 5912 5912 5913 5913 5913 5913 5914 5914 5914 5914 5914 5913 5913 5913 5913 5912
5922 5921 5920 5919 5918 5917 5916 5915 5914 5913 5911 5910 5910 5909 5909 5908 5907 5907 5908 5908 5908 5909 5909 5909 5910 5910 5910 5911 5911 5911 5912 5912 5912 5912 5912 5912 5913 5912 5912 5912 5911 5911 5911
5921 5920 5919 5919 5918 5917 5915 5914 5913 5912 5911 5910 5910 5909 5908 5908 5907 5907 5907 5907 5907 5907 5908 5908 5908 5909 5909 5909 5910 5910 5910 5910 5911 5911 5911 5911 5911 5910 5910 5910 5909 5909 5908
5919 5919 5918 5917 5917 5916 5915 5914 5913 5912 5910 5909 5909 5908 5907 5907 5906 5906 5906 5906 5906 5905 5906 5906 5906 5907 5907 5907 5908 5908 5908 5909 5909 5909 5909 5908 5908 5908 5908 5908 5907 5906 5905
5917 5917 5917 5916 5915 5914 5914 5913 5912 5910 5909 5908 5907 5907 5906 5906 5905 5905 5904 5904 5903 5903 5903 5903 5904 5904 5905 5905 5905 5906 5906 5906 5906 5906 5906 5906 5905 5905 5905 5905 5904 5904 5903
5915 5915 5915 5915 5914 5913 5912 5911 5910 5909 5908 5907 5906 5905 5904 5903 5903 5903 5903 5902 5902 5901 5901 5901 5902 5902 5902 5903 5903 5903 5903 5903 5903 5903 5903 5903 5903 5902 5902 5902 5901 5900 5900
5913 5913 5913 5912 5912 5911 5911 5910 5909 5907 5906 5905 5904 5904 5903 5902 5901 5900 5900 5900 5900 5899 5899 5899 5899 5900 5900 5900 5900 5900 5900 5900 5900 5900 5900 5900 5900 5899 5898 5898 5897 5896 5896
5911 5910 5910 5910 5910 5909 5908 5908 5907 5906 5905 5904 5903 5902 5901 5900 5899 5899 5898 5898 5898 5897 5897 5897 5897 5897 5897 5897 5898 5898 5897 5897 5897 5897 5896 5896 5896 5895 5894 5894 5893 5892 5892
5908 5908 5908 5907 5907 5906 5905 5906 5905 5904 5903 5902 5901 5900 5900 5899 5898 5897 5897 5896 5895 5895 5895 5895 5895 5895 5895 5895 5894 5894 5894 5894 5894 5893 5892 5892 5891 5891 5890 5889 5888 5888 5887
5905 5905 5904 5904 5904 5903 5903 5903 5903 5902 5902 5900 5900 5898 5897 5896 5896 5895 5894 5894 5893 5892 5892 5892 5892 5892 5892 5891 5891 5891 5891 5891 5890 5889 5889 5888 5887 5886 5885 5884 5883 5882 5882
5901 5901 5900 5900 5901 5901 5901 5901 5901 5900 5899 5899 5898 5896 5895 5894 5893 5892 5892 5891 5890 5889 5889 5889 5889 5889 5888 5888 5888 5888 5887 5887 5886 5885 5885 5884 5882 5881 5880 5879 5878 5877 5876
5897 5897 5896 5896 5897 5898 5898 5898 5898 5897 5897 5896 5895 5894 5892 5891 5890 5889 5888 5888 5887 5887 5886 5886 5886 5886 5885 5885 5885 5884 5883 5883 5882 5881 5880 5879 5878 5877 5876 5874 5873 5872 5870
5894 5894 5893 5894 5894 5895 5895 5895 5895 5894 5894 5893 5892 5891 5889 5888 5887 5886 5886 5885 5884 5884 5883 5883 5883 5882 5882 5881 5881 5880 5880 5879 5878 5877 5876 5875 5874 5872 5871 5869 5868 5867 5865
5890 5891 5891 5891 5891 5891 5892 5891 5891 5891 5890 5889 5889 5888 5886 5885 5884 5883 5883 5882 5881 5881 5880 5880 5880 5879 5878 5878 5877 5876 5876 5875 5874 5873 5872 5871 5869 5867 5866 5864 5863 5861 5859
5886 5887 5887 5888 5888 5888 5888 5888 5887 5887 5886 5886 5885 5884 5883 5882 5881 5881 5880 5879 5879 5878 5877 5876 5876 5875 5875 5874 5873 5872 5872 5871 5870 5869 5867 5866 5864 5862 5861 5859 5857 5856 5854
5882 5882 5883 5883 5884 5884 5884 5884 5883 5883 5882 5881 5881 5880 5880 5879 5878 5878 5877 5876 5875 5875 5874 5873 5872 5871 5871 5870 5869 5868 5868 5866 5865 5864 5863 5861 5859 5857 5855 5853 5852 5850 5848
5877 5878 5879 5879 5880 5880 5880 5880 5879 5878 5878 5877 5877 5877 5877 5876 5875 5875 5874 5872 5872 5871 5870 5869 5868 5868 5867 5866 5865 5864 5863 5862 5860 5859 5857 5855 5854 5852 5850 5848 5846 5844 5842
5874 5875 5875 5875 5876 5876 5876 5876 5874 5873 5874 5873 5873 5873 5872 5872 5871 5871 5870 5869 5868 5867 5867 5866 5865 5864 5863 5862 5861 5859 5858 5856 5855 5853 5852 5850 5848 5846 5844 5842 5840 5838 5836
5869 5870 5871 5872 5872 5873 5873 5873 5872 5871 5871 5870 5869 5869 5869 5868 5868 5867 5867 5866 5865 5864 5862 5861 5861 5860 5859 5858 5856 5855 5853 5851 5850 5848 5846 5844 5842 5840 5838 5836 5834 5832 5829
5865 5866 5867 5868 5869 5869 5869 5869 5869 5868 5868 5867 5867 5866 5865 5865 5864 5864 5863 5862 5861 5860 5858 5858 5857 5856 5855 5853 5852 5850 5848 5846 5844 5842 5841 5839 5836 5834 5832 5830 5828 5825 5823
5862 5863 5863 5864 5865 5865 5866 5866 5866 5865 5865 5864 5863 5863 5862 5861 5861 5860 5859 5858 5857 5856 5855 5854 5853 5851 5850 5848 5846 5845 5843 5841 5839 5837 5835 5832 5830 5828 5826 5823 5821 5818 5815
5858 5859 5859 5860 5861 5862 5862 5862 5862 5862 5861 5861 5860 5859 5859 5858 5857 5856 5855 5854 5853 5852 5851 5849 5848 5847 5845 5843 5841 5839 5837 5835 5833 5831 5829 5826 5824 5822 5819 5816 5813 5810 5807
5853 5855 5855 5856 5857 5857 5857 5858 5858 5858 5858 5857 5856 5855 5855 5854 5853 5852 5851 5850 5849 5848 5847 5845 5844 5842 5839 5838 5836 5833 5831 5829 5827 5824 5822 5820 5818 5815 5812 5809 5806 5803 5800
5849 5850 5851 5852 5852 5853 5853 5853 5854 5854 5854 5853 5852 5852 5851 5850 5849 5848 5847 5846 5845 5843 5842 5840 5838 5836 5834 5832 5830 5828 5825 5823 5821 5818 5816 5813 5811 5808 5805 5802 5799 5795 5792
5844 5845 5846 5847 5848 5849 5849 5849 5849 5849 5848 5848 5848 5847 5846 5845 5845 5844 5843 5841 5840 5838 5837 5835 5833 5831 5829 5826 5824 5822 5819 5817 5815 5812 5809 5807 5804 5801 5798 5795 5791 5788 5785
5838 5840 5841 5842 5843 5843 5844 5844 5844 5843 5843 5843 5843 5842 5841 5841 5840 5839 5838 5836 5835 5833 5831 5829 5827 5825 5823 5820 5818 5815 5813 5810 5808 5805 5803 5800 5797 5794 5791 5787 5784 5780 5777